| time (UTC) | temp F | wind direction | speed knots | gust knots | rain 1hr in | rain 24hr in | rain mn in | humidity % | barometer mb |
| 20260507155416 | 64 | 98 | 0.9 | 4.3 | 0.04 | 0.31 | 0.05 | 73 | 1005.8 |
| 20260507150133 | 63 | 73 | 1.7 | 12.2 | 0.03 | 0.30 | 0.04 | 66 | 1006.2 |
| 20260507142508 | 66 | 173 | 2.6 | 4.3 | 0.00 | 0.27 | 0.01 | 60 | 1006.3 |
| 20260507135548 | 67 | 220 | 0.0 | 1.7 | 0.00 | 0.27 | 0.01 | 53 | 1006.3 |
| 20260507131820 | 68 | 89 | 0.0 | 0.9 | 0.00 | 0.27 | 0.01 | 55 | 1006.3 |
| 20260507123714 | 67 | 234 | 0.9 | 3.5 | 0.00 | 0.27 | 0.01 | 52 | 1006.2 |
| 20260507120314 | 67 | 283 | 0.0 | 3.5 | 0.00 | 0.27 | 0.01 | 52 | 1006.4 |
| 20260507112426 | 68 | 290 | 1.7 | 4.3 | 0.00 | 0.27 | 0.01 | 52 | 1006.6 |
| 20260507104911 | 68 | 297 | 1.7 | 6.1 | 0.00 | 0.27 | 0.01 | 50 | 1006.7 |
| 20260507100128 | 68 | 280 | 2.6 | 7.0 | 0.00 | 0.27 | 0.01 | 51 | 1006.6 |
| 20260507093542 | 68 | 283 | 2.6 | 6.1 | 0.00 | 0.27 | 0.01 | 53 | 1006.8 |
| 20260507085002 | 69 | 70 | 1.7 | 8.7 | 0.00 | 0.27 | 0.01 | 51 | 1007.0 |
| 20260507081226 | 68 | 264 | 3.5 | 7.0 | 0.00 | 0.27 | 0.01 | 51 | 1007.2 |
| 20260507073939 | 68 | 306 | 5.2 | 10.4 | 0.00 | 0.27 | 0.01 | 53 | 1007.5 |
| 20260507065344 | 68 | 171 | 2.6 | 11.3 | 0.00 | 0.27 | 0.01 | 58 | 1007.5 |
| 20260507062306 | 67 | 244 | 4.3 | 10.4 | 0.00 | 0.27 | 0.01 | 57 | 1007.5 |
| 20260507054855 | 66 | 211 | 10.4 | 12.2 | 0.00 | 0.27 | 0.01 | 59 | 1007.5 |
| 20260507051007 | 65 | 173 | 5.2 | 9.6 | 0.00 | 0.27 | 0.01 | 61 | 1007.6 |
| 20260507043939 | 65 | 233 | 2.6 | 11.3 | 0.00 | 0.27 | 0.01 | 61 | 1007.6 |
| 20260507035547 | 65 | 226 | 4.3 | 8.7 | 0.00 | 0.27 | 0.01 | 61 | 1007.7 |
| 20260507031559 | 64 | 261 | 5.2 | 10.4 | 0.00 | 0.27 | 0.01 | 66 | 1007.7 |
| 20260507024045 | 63 | 230 | 9.6 | 13.9 | 0.00 | 0.27 | 0.01 | 66 | 1007.8 |
| 20260507020754 | 64 | 210 | 9.6 | 13.0 | 0.00 | 0.27 | 0.01 | 67 | 1007.9 |
| 20260507013448 | 64 | 258 | 4.3 | 13.9 | 0.00 | 0.27 | 0.01 | 65 | 1007.9 |
| 20260507010345 | 63 | 236 | 7.8 | 15.6 | 0.00 | 0.27 | 0.01 | 64 | 1007.8 |
| 20260507003426 | 62 | 216 | 12.2 | 16.5 | 0.00 | 0.27 | 0.01 | 65 | 1007.8 |
| 20260507000518 | 62 | 211 | 6.1 | 14.8 | 0.00 | 0.27 | 0.01 | 65 | 1007.7 |
| 20260506232847 | 62 | 260 | 9.6 | 15.6 | 0.00 | 0.27 | 0.01 | 67 | 1007.7 |
| 20260506225338 | 61 | 193 | 8.7 | 14.8 | 0.00 | 0.27 | 0.01 | 67 | 1007.7 |
| 20260506223028 | 60 | 218 | 9.6 | 17.4 | 0.00 | 0.27 | 0.01 | 70 | 1007.5 |
| 20260506215943 | 60 | 209 | 12.2 | 14.8 | 0.00 | 0.27 | 0.01 | 72 | 1007.4 |
| 20260506211824 | 59 | 224 | 12.2 | 15.6 | 0.00 | 0.27 | 0.01 | 74 | 1007.4 |
| 20260506203700 | 59 | 247 | 9.6 | 17.4 | 0.00 | 0.27 | 0.01 | 76 | 1007.4 |
| 20260506200120 | 59 | 213 | 7.0 | 16.5 | 0.00 | 0.27 | 0.01 | 75 | 1007.4 |
| 20260506192419 | 58 | 243 | 9.6 | 13.0 | 0.00 | 0.27 | 0.01 | 79 | 1007.3 |
| 20260506185423 | 57 | 217 | 13.0 | 17.4 | 0.00 | 0.27 | 0.01 | 77 | 1007.3 |
| 20260506181910 | 57 | 225 | 8.7 | 14.8 | 0.00 | 0.27 | 0.01 | 80 | 1007.3 |
| 20260506175323 | 56 | 227 | 7.0 | 11.3 | 0.00 | 0.27 | 0.01 | 79 | 1007.2 |
| 20260506172252 | 56 | 250 | 5.2 | 13.0 | 0.00 | 0.27 | 0.01 | 81 | 1007.0 |
| 20260506164631 | 56 | 222 | 11.3 | 15.6 | 0.00 | 0.27 | 0.01 | 82 | 1007.3 |
| 20260506161337 | 56 | 237 | 7.8 | 13.0 | 0.00 | 0.27 | 0.01 | 82 | 1007.3 |